Regional Weather Roundup
Issued by NWS

Home | Current Version | Previous Version | Text Only | Print | Product List | Glossary Off
Versions: 1 2 3 4 5 6 7 8 9 10 11 12 13 14 15 16 17 18 19 20 21 22 23 24 25 26 27 28 29 30 31 32 33 34 35 36 37 38 39 40 41 42 43 44 45 46 47 48 49 50

000
ASUS43 KLMK 021710
RWRKY
KENTUCKY REGIONAL WEATHER ROUNDUP
NATIONAL WEATHER SERVICE LOUISVILLE KY
100 PM EDT THU JUL 02 2015

NOTE "FAIR" INDICATES FEW OR NO CLOUDS BELOW 12,000 FEET
WITH NO SIGNIFICANT WEATHER AND/OR OBSTRUCTIONS TO VISIBILITY.

KYZ001>023-026-027-061>063-070>075-021800-
WESTERN AND SOUTH CENTRAL KENTUCKY

CITY           SKY/WX    TMP DP  RH WIND       PRES   REMARKS
PADUCAH        CLOUDY    82  71  69 SW10      29.86S
HENDERSON      CLOUDY    75  70  83 CALM      29.86R
OWENSBORO      PTSUNNY   78  71  79 S9        29.88F
HOPKINSVILLE   PTSUNNY   82  74  75 SW14      29.89S
BOWLING GREEN  MOSUNNY   81  70  69 SW14      29.89S
GLASGOW        NOT AVBL
$$

KYZ024-025-028>034-038-045-046-053-021800-
NORTH CENTRAL KENTUCKY

CITY           SKY/WX    TMP DP  RH WIND       PRES   REMARKS
LOUISVILLE/SDF CLOUDY    75  70  84 SW6       29.88S
LOUISVILLE/LOU CLOUDY    76  69  79 VRB7      29.88F
FORT KNOX      PTSUNNY   72  69  91 S3        29.89S
$$

KYZ035>037-039>044-047>052-055>060-089>105-021800-
NORTHEAST KENTUCKY

CITY           SKY/WX    TMP DP  RH WIND       PRES   REMARKS
LEXINGTON      CLOUDY    72  68  87 SW3       29.91F
COVINGTON      CLOUDY    72  67  84 SE6       29.90F HAZE
FRANKFORT      PTSUNNY   75  69  81 S5        29.88F
$$

KYZ054-064>069-076>088-106>120-021800-
SOUTHEAST KENTUCKY

CITY           SKY/WX    TMP DP  RH WIND       PRES   REMARKS
JACKSON        RAIN      67  66  97 MISG      29.95F VSB 1/4
LONDON         PTSUNNY   74  65  73 S5        29.94F
SOMERSET       NOT AVBL
MIDDLESBORO    NOT AVBL
MONTICELLO     PTSUNNY   76  69  79 CALM      29.97R
$$




USA.gov is the U.S. government's official web portal to all federal, state and local government web resources and services.